Year,Month,Day,Hour,Minute,Value (Times are PST for temperature in C)
2009,03,13,00,00,-1.60
2009,03,13,00,01,-1.60
2009,03,13,00,02,-1.60
2009,03,13,00,03,-1.60
2009,03,13,00,04,-1.60
2009,03,13,00,05,-1.60
2009,03,13,00,06,-1.60
2009,03,13,00,07,-1.60
2009,03,13,00,08,-1.70
2009,03,13,00,09,-1.70
2009,03,13,00,10,-1.70
2009,03,13,00,11,-1.70
2009,03,13,00,12,-1.70
2009,03,13,00,13,-1.70
2009,03,13,01,02,-2.00
2009,03,13,01,03,-2.00
2009,03,13,01,04,-2.00
2009,03,13,01,05,-1.90
2009,03,13,01,06,-1.90
2009,03,13,01,07,-1.90
2009,03,13,01,08,-1.80
2009,03,13,01,09,-1.80
2009,03,13,01,10,-1.80
2009,03,13,01,11,-1.80
2009,03,13,01,12,-1.80
2009,03,13,01,13,-1.80
2009,03,13,01,14,-1.80
2009,03,13,01,15,-1.80
2009,03,13,01,16,-1.80
2009,03,13,01,17,-1.80
2009,03,13,01,18,-1.80
2009,03,13,01,19,-1.80
2009,03,13,01,20,-1.80
2009,03,13,01,21,-1.80
2009,03,13,01,22,-1.80
2009,03,13,01,23,-1.80
2009,03,13,01,24,-1.80
2009,03,13,01,25,-1.90
2009,03,13,01,26,-1.90
2009,03,13,01,27,-1.90
2009,03,13,01,28,-1.90
2009,03,13,01,29,-1.90
2009,03,13,01,30,-1.90
2009,03,13,01,31,-1.90
2009,03,13,01,32,-1.90
2009,03,13,01,33,-1.90
2009,03,13,01,34,-1.90
2009,03,13,01,35,-1.90
2009,03,13,01,36,-1.90
2009,03,13,01,37,-1.90
2009,03,13,01,38,-1.90
2009,03,13,01,39,-1.90
2009,03,13,01,40,-1.90
2009,03,13,01,41,-1.90
2009,03,13,01,42,-1.90
2009,03,13,01,43,-2.00
2009,03,13,01,44,-1.90
2009,03,13,01,45,-1.90
2009,03,13,01,46,-1.90
2009,03,13,01,47,-1.90
2009,03,13,01,48,-1.90
2009,03,13,01,49,-1.90
2009,03,13,01,50,-1.90
2009,03,13,01,51,-1.90
2009,03,13,01,52,-1.90
2009,03,13,01,53,-1.90
2009,03,13,01,54,-1.90
2009,03,13,01,55,-1.90
2009,03,13,01,56,-1.90
2009,03,13,01,57,-1.90
2009,03,13,01,58,-1.90
2009,03,13,01,59,-1.90
2009,03,13,02,00,-1.90
2009,03,13,02,01,-1.90
2009,03,13,02,02,-1.90
2009,03,13,02,03,-1.90
2009,03,13,02,04,-1.90
2009,03,13,02,05,-1.90
2009,03,13,02,06,-1.90
2009,03,13,02,07,-1.90
2009,03,13,02,08,-2.00
2009,03,13,02,09,-2.00
2009,03,13,02,10,-1.90
2009,03,13,02,11,-1.90
2009,03,13,02,12,-1.90
2009,03,13,02,13,-1.80
2009,03,13,02,14,-1.80
2009,03,13,02,15,-1.90
2009,03,13,02,16,-1.90
2009,03,13,02,17,-1.90
2009,03,13,02,18,-1.80
2009,03,13,02,19,-1.80
2009,03,13,02,20,-1.80
2009,03,13,02,21,-1.80
2009,03,13,02,22,-1.90
2009,03,13,02,23,-1.90
2009,03,13,02,24,-1.90
2009,03,13,02,25,-1.90
2009,03,13,02,26,-1.90
2009,03,13,02,27,-1.90
2009,03,13,02,28,-1.90
2009,03,13,02,29,-2.00
2009,03,13,02,30,-2.00
2009,03,13,02,31,-2.00
2009,03,13,02,32,-2.00
2009,03,13,02,33,-2.00
2009,03,13,02,34,-2.00
2009,03,13,02,35,-2.00
2009,03,13,02,36,-2.00
2009,03,13,02,37,-2.00
2009,03,13,02,38,-2.00
2009,03,13,02,39,-2.00
2009,03,13,02,40,-2.00
2009,03,13,02,41,-2.00
2009,03,13,02,42,-2.10
2009,03,13,02,43,-2.10
2009,03,13,02,44,-2.10
2009,03,13,02,45,-2.10
2009,03,13,02,46,-2.10
2009,03,13,02,47,-2.10
2009,03,13,02,48,-2.10
2009,03,13,02,49,-2.10
2009,03,13,02,50,-2.10
2009,03,13,02,51,-2.10
2009,03,13,02,52,-2.10
2009,03,13,02,53,-2.10
2009,03,13,02,54,-2.10
2009,03,13,02,55,-2.00
2009,03,13,02,56,-2.00
2009,03,13,02,57,-2.00
2009,03,13,02,58,-2.00
2009,03,13,02,59,-2.00
2009,03,13,03,00,-2.00
2009,03,13,03,01,-2.00
2009,03,13,03,02,-2.00
2009,03,13,03,03,-2.00
2009,03,13,03,04,-2.00
2009,03,13,03,05,-2.00
2009,03,13,03,06,-2.00
2009,03,13,03,07,-2.00
2009,03,13,03,08,-2.10
2009,03,13,03,09,-2.10
2009,03,13,03,10,-2.10
2009,03,13,03,11,-2.10
2009,03,13,03,12,-2.10
2009,03,13,03,13,-2.10
2009,03,13,03,14,-2.10
2009,03,13,03,15,-2.10
2009,03,13,03,16,-2.10
2009,03,13,03,17,-2.10
2009,03,13,03,18,-2.10
2009,03,13,03,19,-2.00
2009,03,13,03,20,-2.00
2009,03,13,03,21,-2.00
2009,03,13,03,22,-2.00
2009,03,13,03,23,-1.90
2009,03,13,03,24,-1.90
2009,03,13,03,25,-1.90
2009,03,13,03,26,-2.00
2009,03,13,03,27,-2.00
2009,03,13,03,28,-2.00
2009,03,13,03,29,-2.00
2009,03,13,03,30,-2.00
2009,03,13,03,31,-2.00
2009,03,13,03,32,-2.00
2009,03,13,03,33,-2.00
2009,03,13,03,34,-2.00
2009,03,13,03,35,-2.00
2009,03,13,03,36,-2.00
2009,03,13,03,37,-2.00
2009,03,13,03,38,-2.00
2009,03,13,03,39,-2.00
2009,03,13,03,40,-1.90
2009,03,13,03,41,-1.90
2009,03,13,03,42,-1.90
2009,03,13,03,43,-1.90
2009,03,13,03,44,-1.90
2009,03,13,03,45,-1.90
2009,03,13,03,46,-1.90
2009,03,13,03,47,-1.90
2009,03,13,03,48,-1.90
2009,03,13,03,49,-1.90
2009,03,13,03,50,-1.90
2009,03,13,03,51,-1.90
2009,03,13,03,52,-1.90
2009,03,13,03,53,-1.90
2009,03,13,03,54,-1.90
2009,03,13,03,55,-1.90
2009,03,13,03,56,-1.90
2009,03,13,03,57,-1.90
2009,03,13,03,58,-1.90
2009,03,13,03,59,-1.90
2009,03,13,04,00,-1.90
2009,03,13,04,01,-1.90
2009,03,13,04,02,-1.90
2009,03,13,04,03,-1.90
2009,03,13,04,04,-1.90
2009,03,13,04,05,-1.90
2009,03,13,04,06,-1.90
2009,03,13,04,07,-1.90
2009,03,13,04,08,-1.90
2009,03,13,04,09,-2.00
2009,03,13,04,10,-2.00
2009,03,13,04,11,-2.00
2009,03,13,04,12,-2.00
2009,03,13,04,13,-2.00
2009,03,13,04,14,-2.00
2009,03,13,04,15,-2.00
2009,03,13,04,16,-2.00
2009,03,13,04,17,-1.90
2009,03,13,04,18,-2.00
2009,03,13,04,19,-2.00
2009,03,13,04,20,-2.00
2009,03,13,04,21,-2.00
2009,03,13,04,22,-2.10
2009,03,13,04,23,-2.10
2009,03,13,04,24,-2.10
2009,03,13,04,25,-2.10
2009,03,13,04,26,-2.10
2009,03,13,04,27,-2.10
2009,03,13,04,28,-2.10
2009,03,13,04,29,-2.10
2009,03,13,04,30,-2.10
2009,03,13,04,31,-2.10
2009,03,13,04,32,-2.20
2009,03,13,04,33,-2.20
2009,03,13,04,34,-2.20
2009,03,13,04,35,-2.20
2009,03,13,04,36,-2.20
2009,03,13,04,37,-2.20
2009,03,13,04,38,-2.20
2009,03,13,04,39,-2.20
2009,03,13,04,40,-2.20
2009,03,13,04,41,-2.20
2009,03,13,04,42,-2.30
2009,03,13,04,43,-2.30
2009,03,13,04,44,-2.30
2009,03,13,04,45,-2.30
2009,03,13,04,46,-2.30
2009,03,13,04,47,-2.30
2009,03,13,04,48,-2.30
2009,03,13,04,49,-2.30
2009,03,13,04,50,-2.30
2009,03,13,04,51,-2.30
2009,03,13,04,52,-2.30
2009,03,13,04,53,-2.30
2009,03,13,04,54,-2.30
2009,03,13,04,55,-2.40
2009,03,13,04,56,-2.40
2009,03,13,04,57,-2.40
2009,03,13,04,58,-2.40
2009,03,13,04,59,-2.40
2009,03,13,05,00,-2.40
2009,03,13,05,01,-2.40
2009,03,13,05,02,-2.40
2009,03,13,05,03,-2.40
2009,03,13,05,04,-2.40
2009,03,13,05,05,-2.40
2009,03,13,05,06,-2.40
2009,03,13,05,07,-2.40
2009,03,13,05,08,-2.40
2009,03,13,05,09,-2.40
2009,03,13,05,10,-2.40
2009,03,13,05,11,-2.40
2009,03,13,05,12,-2.40
2009,03,13,05,13,-2.40
2009,03,13,05,14,-2.40
2009,03,13,05,15,-2.40
2009,03,13,05,16,-2.40
2009,03,13,05,17,-2.40
2009,03,13,05,18,-2.40
2009,03,13,05,19,-2.50
2009,03,13,05,20,-2.50
2009,03,13,05,21,-2.60
2009,03,13,05,22,-2.60
2009,03,13,05,23,-2.60
2009,03,13,05,24,-2.60
2009,03,13,05,25,-2.60
2009,03,13,05,26,-2.60
2009,03,13,05,27,-2.50
2009,03,13,05,28,-2.50
2009,03,13,05,29,-2.50
2009,03,13,05,30,-2.50
2009,03,13,05,31,-2.50
2009,03,13,05,32,-2.50
2009,03,13,05,33,-2.60
2009,03,13,05,34,-2.60
2009,03,13,05,35,-2.60
2009,03,13,05,36,-2.60
2009,03,13,05,37,-2.60
2009,03,13,05,38,-2.60
2009,03,13,05,39,-2.60
2009,03,13,05,40,-2.60
2009,03,13,05,41,-2.60
2009,03,13,05,42,-2.60
2009,03,13,05,43,-2.60
2009,03,13,05,44,-2.60
2009,03,13,05,45,-2.60
2009,03,13,05,46,-2.70
2009,03,13,05,47,-2.70
2009,03,13,05,48,-2.70
2009,03,13,05,49,-2.70
2009,03,13,05,50,-2.70
2009,03,13,05,51,-2.70
2009,03,13,05,52,-2.70
2009,03,13,05,53,-2.70
2009,03,13,05,54,-2.70
2009,03,13,05,55,-2.70
2009,03,13,05,56,-2.80
2009,03,13,05,57,-2.80
2009,03,13,05,58,-2.80
2009,03,13,05,59,-2.80
2009,03,13,06,00,-2.80
2009,03,13,06,01,-2.80
2009,03,13,06,02,-2.80
2009,03,13,06,03,-2.80
2009,03,13,06,04,-2.80
2009,03,13,06,05,-2.80
2009,03,13,06,06,-2.80
2009,03,13,06,07,-2.80
2009,03,13,06,08,-2.80
2009,03,13,06,09,-2.80
2009,03,13,06,10,-2.80
2009,03,13,06,11,-2.80
2009,03,13,06,12,-2.80
2009,03,13,06,13,-2.80
2009,03,13,06,14,-2.80
2009,03,13,06,15,-2.80
2009,03,13,06,16,-2.80
2009,03,13,06,17,-2.80
2009,03,13,06,18,-2.80
2009,03,13,06,19,-2.80
2009,03,13,06,20,-2.80
2009,03,13,06,21,-2.80
2009,03,13,06,22,-2.80
2009,03,13,06,23,-2.80
2009,03,13,06,24,-2.80
2009,03,13,06,25,-2.80
2009,03,13,06,26,-2.80
2009,03,13,06,27,-2.80
2009,03,13,06,28,-2.80
2009,03,13,06,29,-2.80
2009,03,13,06,30,-2.80
2009,03,13,06,31,-2.80
2009,03,13,06,32,-2.80
2009,03,13,06,33,-2.80
2009,03,13,06,34,-2.80
2009,03,13,06,35,-2.80
2009,03,13,06,36,-2.80
2009,03,13,06,37,-2.80
2009,03,13,06,38,-2.70
2009,03,13,06,39,-2.70
2009,03,13,06,40,-2.70
2009,03,13,06,41,-2.70
2009,03,13,06,42,-2.70
2009,03,13,06,43,-2.70
2009,03,13,06,44,-2.70
2009,03,13,06,45,-2.70
2009,03,13,06,46,-2.70
2009,03,13,06,47,-2.80
2009,03,13,06,48,-2.80
2009,03,13,06,49,-2.80
2009,03,13,06,50,-2.80
2009,03,13,06,51,-2.80
2009,03,13,06,52,-2.80
2009,03,13,06,53,-2.80
2009,03,13,06,54,-2.80
2009,03,13,06,55,-2.80
2009,03,13,06,56,-2.80
2009,03,13,06,57,-2.90
2009,03,13,06,58,-2.90
2009,03,13,06,59,-2.90
2009,03,13,07,00,-2.90
2009,03,13,07,01,-2.90
2009,03,13,07,02,-2.90
2009,03,13,07,03,-2.90
2009,03,13,07,04,-2.90
2009,03,13,07,05,-2.90
2009,03,13,07,06,-2.90
2009,03,13,07,07,-2.90
2009,03,13,07,08,-2.80
2009,03,13,07,09,-2.80
2009,03,13,07,10,-2.80
2009,03,13,07,11,-2.80
2009,03,13,07,12,-2.80
2009,03,13,07,13,-2.80
2009,03,13,07,14,-2.80
2009,03,13,07,15,-2.80
2009,03,13,07,16,-2.80
2009,03,13,07,17,-2.80
2009,03,13,07,18,-2.80
2009,03,13,07,19,-2.80
2009,03,13,07,20,-2.80
2009,03,13,07,21,-2.80
2009,03,13,07,22,-2.80
2009,03,13,07,23,-2.80
2009,03,13,07,24,-2.80
2009,03,13,07,25,-2.80
2009,03,13,07,26,-2.80
2009,03,13,07,27,-2.80
2009,03,13,07,28,-2.80
2009,03,13,07,29,-2.80
2009,03,13,07,30,-2.80
2009,03,13,07,31,-2.70
2009,03,13,07,32,-2.70
2009,03,13,07,33,-2.70
2009,03,13,07,34,-2.70
2009,03,13,07,35,-2.70
2009,03,13,07,36,-2.70
2009,03,13,07,37,-2.70
2009,03,13,07,38,-2.70
2009,03,13,07,39,-2.70
2009,03,13,07,40,-2.70
2009,03,13,07,41,-2.70
2009,03,13,07,42,-2.70
2009,03,13,07,43,-2.70
2009,03,13,07,44,-2.70
2009,03,13,07,45,-2.80
2009,03,13,07,46,-2.80
2009,03,13,07,47,-2.80
2009,03,13,07,48,-2.80
2009,03,13,07,49,-2.80
2009,03,13,07,50,-2.80
2009,03,13,07,51,-2.80
2009,03,13,07,52,-2.80
2009,03,13,07,53,-2.80
2009,03,13,07,54,-2.80
2009,03,13,07,55,-2.80
2009,03,13,07,56,-2.80
2009,03,13,07,57,-2.80
2009,03,13,07,58,-2.80
2009,03,13,07,59,-2.80
2009,03,13,08,00,-2.80
2009,03,13,08,01,-2.80
2009,03,13,08,02,-2.80
2009,03,13,08,03,-2.80
2009,03,13,08,04,-2.80
2009,03,13,08,05,-2.70
2009,03,13,08,06,-2.70
2009,03,13,08,07,-2.70
2009,03,13,08,08,-2.60
2009,03,13,08,09,-2.60
2009,03,13,08,10,-2.60
2009,03,13,08,11,-2.60
2009,03,13,08,12,-2.60
2009,03,13,08,13,-2.50
2009,03,13,08,14,-2.50
2009,03,13,08,15,-2.50
2009,03,13,08,16,-2.40
2009,03,13,08,17,-2.40
2009,03,13,08,18,-2.40
2009,03,13,08,19,-2.30
2009,03,13,08,20,-2.30
2009,03,13,08,21,-2.30
2009,03,13,08,22,-2.30
2009,03,13,08,23,-2.20
2009,03,13,08,24,-2.20
2009,03,13,08,25,-2.20
2009,03,13,08,26,-2.20
2009,03,13,08,27,-2.20
2009,03,13,08,28,-2.20
2009,03,13,08,29,-2.20
2009,03,13,08,30,-2.10
2009,03,13,08,31,-2.10
2009,03,13,08,32,-2.10
2009,03,13,08,33,-2.10
2009,03,13,08,34,-2.10
2009,03,13,08,35,-2.10
2009,03,13,08,36,-2.00
2009,03,13,08,37,-2.00
2009,03,13,08,38,-2.00
2009,03,13,08,39,-1.90
2009,03,13,08,40,-1.90
2009,03,13,08,41,-1.80
2009,03,13,08,42,-1.80
2009,03,13,08,43,-1.80
2009,03,13,08,44,-1.70
2009,03,13,08,45,-1.70
2009,03,13,08,46,-1.70
2009,03,13,08,47,-1.70
2009,03,13,08,48,-1.60
2009,03,13,08,49,-1.60
2009,03,13,08,50,-1.60
2009,03,13,08,51,-1.60
2009,03,13,08,52,-1.50
2009,03,13,08,53,-1.50
2009,03,13,08,54,-1.50
2009,03,13,08,55,-1.40
2009,03,13,08,56,-1.40
2009,03,13,08,57,-1.40
2009,03,13,08,58,-1.30
2009,03,13,08,59,-1.30
2009,03,13,09,00,-1.30
2009,03,13,09,01,-1.20
2009,03,13,09,02,-1.20
2009,03,13,09,03,-1.10
2009,03,13,09,04,-1.10
2009,03,13,09,05,-1.00
2009,03,13,09,06,-1.00
2009,03,13,09,07,-0.90
2009,03,13,09,08,-0.90
2009,03,13,09,09,-0.80
2009,03,13,09,10,-0.80
2009,03,13,09,11,-0.70
2009,03,13,09,12,-0.70
2009,03,13,09,13,-0.60
2009,03,13,09,14,-0.60
2009,03,13,09,15,-0.50
2009,03,13,09,16,-0.40
2009,03,13,09,17,-0.40
2009,03,13,09,18,-0.30
2009,03,13,09,19,-0.30
2009,03,13,09,20,-0.20
2009,03,13,09,21,-0.20
2009,03,13,09,22,-0.10
2009,03,13,09,23,0.00
2009,03,13,09,24,0.00
2009,03,13,09,25,0.10
2009,03,13,09,26,0.10
2009,03,13,09,27,0.20
2009,03,13,09,28,0.30
2009,03,13,09,29,0.30
2009,03,13,09,30,0.40
2009,03,13,09,31,0.50
2009,03,13,09,32,0.50
2009,03,13,09,33,0.60
2009,03,13,09,34,0.70
2009,03,13,09,35,0.80
2009,03,13,09,36,0.90
2009,03,13,09,37,1.00
2009,03,13,09,38,1.20
2009,03,13,09,39,1.30
2009,03,13,09,40,1.30
2009,03,13,09,41,1.40
2009,03,13,09,42,1.60
2009,03,13,09,43,1.70
2009,03,13,09,44,1.80
2009,03,13,09,45,1.90
2009,03,13,09,46,2.00
2009,03,13,09,47,2.10
2009,03,13,09,48,2.10
2009,03,13,09,49,2.20
2009,03,13,09,50,2.30
2009,03,13,09,51,2.30
2009,03,13,09,52,2.40
2009,03,13,09,53,2.50
2009,03,13,09,54,2.60
2009,03,13,09,55,2.60
2009,03,13,09,56,2.70
2009,03,13,09,57,2.80
2009,03,13,09,58,2.90
2009,03,13,09,59,3.00
2009,03,13,10,00,3.10
2009,03,13,10,01,3.20
2009,03,13,10,02,3.20
2009,03,13,10,03,3.30
2009,03,13,10,04,3.40
2009,03,13,10,05,3.40
2009,03,13,10,06,3.50
2009,03,13,10,07,3.60
2009,03,13,10,08,3.60
2009,03,13,10,09,3.70
2009,03,13,10,10,3.80
2009,03,13,10,11,3.80
2009,03,13,10,12,3.80
2009,03,13,10,13,3.90
2009,03,13,10,14,3.90
2009,03,13,10,15,3.90
2009,03,13,10,16,4.00
2009,03,13,10,17,4.00
2009,03,13,10,18,4.00
2009,03,13,10,19,4.00
2009,03,13,10,20,4.00
2009,03,13,10,21,4.10
2009,03,13,10,22,4.10
2009,03,13,10,23,4.10
2009,03,13,10,24,4.20
2009,03,13,10,25,4.20
2009,03,13,10,26,4.30
2009,03,13,10,27,4.30
2009,03,13,10,28,4.40
2009,03,13,10,29,4.50
2009,03,13,10,30,4.60
2009,03,13,10,31,4.70
2009,03,13,10,32,4.80
2009,03,13,10,33,4.90
2009,03,13,10,34,5.00
2009,03,13,10,35,5.10
2009,03,13,10,36,5.20
2009,03,13,10,37,5.30
2009,03,13,10,38,5.30
2009,03,13,10,39,5.20
2009,03,13,10,40,5.20
2009,03,13,10,41,5.20
2009,03,13,10,42,5.20
2009,03,13,10,43,5.20
2009,03,13,10,44,5.30
2009,03,13,10,45,5.40
2009,03,13,10,46,5.50
2009,03,13,10,47,5.60
2009,03,13,10,48,5.70
2009,03,13,10,49,5.70
2009,03,13,10,50,5.70
2009,03,13,10,51,5.70
2009,03,13,10,52,5.70
2009,03,13,10,53,5.60
2009,03,13,10,54,5.40
2009,03,13,10,55,5.30
2009,03,13,10,56,5.30
2009,03,13,10,57,5.40
2009,03,13,10,58,5.40
2009,03,13,10,59,5.50
2009,03,13,11,00,5.70
2009,03,13,11,01,5.80
2009,03,13,11,02,5.80
2009,03,13,11,03,5.90
2009,03,13,11,04,5.90
2009,03,13,11,05,5.90
2009,03,13,11,06,5.90
2009,03,13,11,07,6.00
2009,03,13,11,08,6.00
2009,03,13,11,09,6.10
2009,03,13,11,10,6.10
2009,03,13,11,11,6.10
2009,03,13,11,12,6.10
2009,03,13,11,13,6.20
2009,03,13,11,14,6.20
2009,03,13,11,15,6.20
2009,03,13,11,16,6.20
2009,03,13,11,17,6.20
2009,03,13,11,18,6.10
2009,03,13,11,19,6.20
2009,03,13,11,20,6.20
2009,03,13,11,21,6.20
2009,03,13,11,22,6.20
2009,03,13,11,23,6.20
2009,03,13,11,24,6.20
2009,03,13,11,25,6.20
2009,03,13,11,26,6.20
2009,03,13,11,27,6.20
2009,03,13,11,28,6.30
2009,03,13,11,29,6.30
2009,03,13,11,30,6.40
2009,03,13,11,31,6.40
2009,03,13,11,32,6.50
2009,03,13,11,33,6.60
2009,03,13,11,34,6.60
2009,03,13,11,35,6.60
2009,03,13,11,36,6.60
2009,03,13,11,37,6.70
2009,03,13,11,38,6.70
2009,03,13,11,39,6.70
2009,03,13,11,40,6.80
2009,03,13,11,41,6.80
2009,03,13,11,42,6.80
2009,03,13,11,43,6.80
2009,03,13,11,44,6.90
2009,03,13,11,45,7.00
2009,03,13,11,46,7.00
2009,03,13,11,47,7.10
2009,03,13,11,48,7.20
2009,03,13,11,49,7.30
2009,03,13,11,50,7.30
2009,03,13,11,51,7.20
2009,03,13,11,52,7.20
2009,03,13,11,53,7.30
2009,03,13,11,54,7.40
2009,03,13,11,55,7.40
2009,03,13,11,56,7.50
2009,03,13,11,57,7.50
2009,03,13,11,58,7.50
2009,03,13,11,59,7.60
2009,03,13,12,00,7.60
2009,03,13,12,01,7.70
2009,03,13,12,02,7.80
2009,03,13,12,03,7.80
2009,03,13,12,04,7.80
2009,03,13,12,05,7.80
2009,03,13,12,06,7.80
2009,03,13,12,07,7.80
2009,03,13,12,08,7.70
2009,03,13,12,09,7.60
2009,03,13,12,10,7.60
2009,03,13,12,11,7.60
2009,03,13,12,12,7.60
2009,03,13,12,13,7.60
2009,03,13,12,14,7.60
2009,03,13,12,15,7.60
2009,03,13,12,16,7.60
2009,03,13,12,17,7.60
2009,03,13,12,18,7.70
2009,03,13,12,19,7.70
2009,03,13,12,20,7.70
2009,03,13,12,21,7.70
2009,03,13,12,22,7.80
2009,03,13,12,23,7.80
2009,03,13,12,24,7.90
2009,03,13,12,25,8.00
2009,03,13,12,26,8.00
2009,03,13,12,27,8.00
2009,03,13,12,28,8.00
2009,03,13,12,29,8.10
2009,03,13,12,30,8.20
2009,03,13,12,31,8.30
2009,03,13,12,32,8.30
2009,03,13,12,33,8.30
2009,03,13,12,34,8.30
2009,03,13,12,35,8.30
2009,03,13,12,36,8.30
2009,03,13,12,37,8.40
2009,03,13,12,38,8.50
2009,03,13,12,39,8.50
2009,03,13,12,40,8.60
2009,03,13,12,41,8.50
2009,03,13,12,42,8.40
2009,03,13,12,43,8.40
2009,03,13,12,44,8.40
2009,03,13,12,45,8.50
2009,03,13,12,46,8.60
2009,03,13,12,47,8.70
2009,03,13,12,48,8.80
2009,03,13,12,49,8.90
2009,03,13,12,50,9.00
2009,03,13,12,51,9.10
2009,03,13,12,52,9.20
2009,03,13,12,53,9.20
2009,03,13,12,54,9.10
2009,03,13,12,55,9.00
2009,03,13,12,56,9.00
2009,03,13,12,57,9.00
2009,03,13,12,58,8.80
2009,03,13,12,59,8.70
2009,03,13,13,00,8.60
2009,03,13,13,01,8.60
2009,03,13,13,02,8.60
2009,03,13,13,03,8.60
2009,03,13,13,04,8.50
2009,03,13,13,05,8.40
2009,03,13,13,06,8.50
2009,03,13,13,07,8.60
2009,03,13,13,08,8.60
2009,03,13,13,09,8.50
2009,03,13,13,10,8.40
2009,03,13,13,11,8.40
2009,03,13,13,12,8.50
2009,03,13,13,13,8.60
2009,03,13,13,14,8.50
2009,03,13,13,15,8.40
2009,03,13,13,16,8.40
2009,03,13,13,17,8.40
2009,03,13,13,18,8.50
2009,03,13,13,19,8.50
2009,03,13,13,20,8.50
2009,03,13,13,21,8.50
2009,03,13,13,22,8.50
2009,03,13,13,23,8.50
2009,03,13,13,24,8.40
2009,03,13,13,25,8.40
2009,03,13,13,26,8.40
2009,03,13,13,27,8.40
2009,03,13,13,28,8.40
2009,03,13,13,29,8.40
2009,03,13,13,30,8.40
2009,03,13,13,31,8.50
2009,03,13,13,32,8.60
2009,03,13,13,33,8.60
2009,03,13,13,34,8.70
2009,03,13,13,35,8.70
2009,03,13,13,36,8.70
2009,03,13,13,37,8.70
2009,03,13,13,38,8.70
2009,03,13,13,39,8.60
2009,03,13,13,40,8.60
2009,03,13,13,41,8.60
2009,03,13,13,42,8.60
2009,03,13,13,43,8.60
2009,03,13,13,44,8.60
2009,03,13,13,45,8.40
2009,03,13,13,46,8.30
2009,03,13,13,47,8.20
2009,03,13,13,48,8.20
2009,03,13,13,49,8.10
2009,03,13,13,50,8.20
2009,03,13,13,51,8.20
2009,03,13,13,52,8.20
2009,03,13,13,53,8.30
2009,03,13,13,54,8.30
2009,03,13,13,55,8.40
2009,03,13,13,56,8.40
2009,03,13,13,57,8.50
2009,03,13,13,58,8.60
2009,03,13,13,59,8.60
2009,03,13,14,00,8.60
2009,03,13,14,01,8.70
2009,03,13,14,02,8.70
2009,03,13,14,03,8.60
2009,03,13,14,04,8.60
2009,03,13,14,05,8.60
2009,03,13,14,06,8.60
2009,03,13,14,07,8.60
2009,03,13,14,08,8.60
2009,03,13,14,09,8.50
2009,03,13,14,10,8.50
2009,03,13,14,11,8.40
2009,03,13,14,12,8.40
2009,03,13,14,13,8.40
2009,03,13,14,14,8.40
2009,03,13,14,15,8.40
2009,03,13,14,16,8.50
2009,03,13,14,17,8.60
2009,03,13,14,18,8.60
2009,03,13,14,19,8.70
2009,03,13,14,20,8.80
2009,03,13,14,21,8.80
2009,03,13,14,22,8.90
2009,03,13,14,23,9.00
2009,03,13,14,24,9.10
2009,03,13,14,25,9.20
2009,03,13,14,26,9.30
2009,03,13,14,27,9.30
2009,03,13,14,28,9.30
2009,03,13,14,29,9.30
2009,03,13,14,30,9.30
2009,03,13,14,31,9.30
2009,03,13,14,32,9.30
2009,03,13,14,33,9.30
2009,03,13,14,34,9.30
2009,03,13,14,35,9.30
2009,03,13,14,36,9.30
2009,03,13,14,37,9.20
2009,03,13,14,38,9.00
2009,03,13,14,39,8.90
2009,03,13,14,40,8.90
2009,03,13,14,41,9.00
2009,03,13,14,42,9.00
2009,03,13,14,43,9.10
2009,03,13,14,44,9.10
2009,03,13,14,45,9.20
2009,03,13,14,46,9.20
2009,03,13,14,47,9.30
2009,03,13,14,48,9.20
2009,03,13,14,49,9.20
2009,03,13,14,50,9.20
2009,03,13,14,51,9.20
2009,03,13,14,52,9.30
2009,03,13,14,53,9.30
2009,03,13,14,54,9.40
2009,03,13,14,55,9.40
2009,03,13,14,56,9.50
2009,03,13,14,57,9.60
2009,03,13,14,58,9.70
2009,03,13,14,59,9.70
2009,03,13,15,00,9.80
2009,03,13,15,01,9.80
2009,03,13,15,02,9.80
2009,03,13,15,03,9.90
2009,03,13,15,04,9.90
2009,03,13,15,05,9.80
2009,03,13,15,06,9.90
2009,03,13,15,07,9.90
2009,03,13,15,08,9.90
2009,03,13,15,09,9.90
2009,03,13,15,10,9.90
2009,03,13,15,11,10.00
2009,03,13,15,12,10.10
2009,03,13,15,13,10.20
2009,03,13,15,14,10.20
2009,03,13,15,15,10.30
2009,03,13,15,16,10.40
2009,03,13,15,17,10.50
2009,03,13,15,18,10.60
2009,03,13,15,19,10.60
2009,03,13,15,20,10.60
2009,03,13,15,21,10.60
2009,03,13,15,22,10.70
2009,03,13,15,23,10.80
2009,03,13,15,24,10.80
2009,03,13,15,25,10.90
2009,03,13,15,26,10.90
2009,03,13,15,27,10.90
2009,03,13,15,28,10.80
2009,03,13,15,29,10.80
2009,03,13,15,30,10.70
2009,03,13,15,31,10.60
2009,03,13,15,32,10.50
2009,03,13,15,33,10.40
2009,03,13,15,34,10.40
2009,03,13,15,35,10.30
2009,03,13,15,36,10.20
2009,03,13,15,37,10.10
2009,03,13,15,38,10.10
2009,03,13,15,39,10.00
2009,03,13,15,40,10.00
2009,03,13,15,41,10.10
2009,03,13,15,42,10.10
2009,03,13,15,43,10.10
2009,03,13,15,44,10.10
2009,03,13,15,45,10.20
2009,03,13,15,46,10.30
2009,03,13,15,47,10.30
2009,03,13,15,48,10.40
2009,03,13,15,49,10.40
2009,03,13,15,50,10.40
2009,03,13,15,51,10.40
2009,03,13,15,52,10.40
2009,03,13,15,53,10.30
2009,03,13,15,54,10.20
2009,03,13,15,55,10.10
2009,03,13,15,56,10.00
2009,03,13,15,57,10.00
2009,03,13,15,58,10.10
2009,03,13,15,59,10.10
2009,03,13,16,00,10.10
2009,03,13,16,01,10.10
2009,03,13,16,02,10.20
2009,03,13,16,03,10.20
2009,03,13,16,04,10.20
2009,03,13,16,05,10.20
2009,03,13,16,06,10.20
2009,03,13,16,07,10.20
2009,03,13,16,08,10.20
2009,03,13,16,09,10.10
2009,03,13,16,10,10.10
2009,03,13,16,11,10.00
2009,03,13,16,12,9.90
2009,03,13,16,13,9.90
2009,03,13,16,14,9.90
2009,03,13,16,15,9.90
2009,03,13,16,16,9.90
2009,03,13,16,17,9.90
2009,03,13,16,18,9.90
2009,03,13,16,19,9.90
2009,03,13,16,20,9.90
2009,03,13,16,21,9.90
2009,03,13,16,22,10.00
2009,03,13,16,23,10.00
2009,03,13,16,24,10.00
2009,03,13,16,25,10.00
2009,03,13,16,26,10.10
2009,03,13,16,27,10.10
2009,03,13,16,28,10.10
2009,03,13,16,29,10.10
2009,03,13,16,30,10.10
2009,03,13,16,31,10.20
2009,03,13,16,32,10.20
2009,03,13,16,33,10.20
2009,03,13,16,34,10.20
2009,03,13,16,35,10.20
2009,03,13,16,36,10.20
2009,03,13,16,37,10.20
2009,03,13,16,38,10.30
2009,03,13,16,39,10.30
2009,03,13,16,40,10.30
2009,03,13,16,41,10.30
2009,03,13,16,42,10.30
2009,03,13,16,43,10.30
2009,03,13,16,44,10.30
2009,03,13,16,45,10.40
2009,03,13,16,46,10.40
2009,03,13,16,47,10.40
2009,03,13,16,48,10.40
2009,03,13,16,49,10.50
2009,03,13,16,50,10.50
2009,03,13,16,51,10.60
2009,03,13,16,52,10.60
2009,03,13,16,53,10.60
2009,03,13,16,54,10.60
2009,03,13,16,55,10.60
2009,03,13,16,56,10.60
2009,03,13,16,57,10.60
2009,03,13,16,58,10.60
2009,03,13,16,59,10.60
2009,03,13,17,00,10.60
2009,03,13,17,01,10.60
2009,03,13,17,02,10.60
2009,03,13,17,03,10.60
2009,03,13,17,04,10.60
2009,03,13,17,05,10.60
2009,03,13,17,06,10.60
2009,03,13,17,07,10.60
2009,03,13,17,08,10.60
2009,03,13,17,09,10.60
2009,03,13,17,10,10.60
2009,03,13,17,11,10.50
2009,03,13,17,12,10.50
2009,03,13,17,13,10.50
2009,03,13,17,14,10.50
2009,03,13,17,15,10.50
2009,03,13,17,16,10.40
2009,03,13,17,17,10.40
2009,03,13,17,18,10.30
2009,03,13,17,19,10.30
2009,03,13,17,20,10.30
2009,03,13,17,21,10.20
2009,03,13,17,22,10.20
2009,03,13,17,23,10.10
2009,03,13,17,24,10.10
2009,03,13,17,25,10.10
2009,03,13,17,26,10.10
2009,03,13,17,27,10.10
2009,03,13,17,28,10.00
2009,03,13,17,29,9.90
2009,03,13,17,30,9.90
2009,03,13,17,31,9.80
2009,03,13,17,32,9.80
2009,03,13,17,33,9.80
2009,03,13,17,34,9.70
2009,03,13,17,35,9.70
2009,03,13,17,36,9.70
2009,03,13,17,37,9.60
2009,03,13,17,38,9.60
2009,03,13,17,39,9.60
2009,03,13,17,40,9.50
2009,03,13,17,41,9.50
2009,03,13,17,42,9.40
2009,03,13,17,43,9.40
2009,03,13,17,44,9.30
2009,03,13,17,45,9.30
2009,03,13,17,46,9.30
2009,03,13,17,47,9.30
2009,03,13,17,48,9.30
2009,03,13,17,49,9.40
2009,03,13,17,50,9.40
2009,03,13,17,51,9.40
2009,03,13,17,52,9.40
2009,03,13,17,53,9.30
2009,03,13,17,54,9.30
2009,03,13,17,55,9.30
2009,03,13,17,56,9.40
2009,03,13,17,57,9.50
2009,03,13,17,58,9.50
2009,03,13,17,59,9.50
2009,03,13,18,00,9.50
2009,03,13,18,01,9.50
2009,03,13,18,02,9.50
2009,03,13,18,03,9.50
2009,03,13,18,04,9.40
2009,03,13,18,05,9.50
2009,03,13,18,06,9.40
2009,03,13,18,07,9.40
2009,03,13,18,08,9.40
2009,03,13,18,09,9.40
2009,03,13,18,10,9.40
2009,03,13,18,11,9.30
2009,03,13,18,12,9.40
2009,03,13,18,13,9.50
2009,03,13,18,14,9.50
2009,03,13,18,15,9.60
2009,03,13,18,16,9.60
2009,03,13,18,17,9.60
2009,03,13,18,18,9.70
2009,03,13,18,19,9.70
2009,03,13,18,20,9.70
2009,03,13,18,21,9.70
2009,03,13,18,22,9.70
2009,03,13,18,23,9.70
2009,03,13,18,24,9.80
2009,03,13,18,25,9.80